Вернуться в каталог

HEAD-1

АктивенНаукаSSO
NORAD 43011·PAYLOAD·🇨🇳 China

Запущен Nov 14, 2017 с Taiyuan Satellite Launch Center

Loading…

Ближайшие Пролёты (ближайшие 24 часа)

TLE

СвежийSource: Space-Track

Эпоха: Sep 14, 2026, 14:15 UTC

1 43011U 17072B   26257.59390139  .00000162  00000-0  82768-4 0  9991
2 43011  98.9534 278.4872 0008881 253.9140 106.1063 14.28844392460121

Отслеживайте HEAD-1 в реальном времени с AllMySat

Download on the App Store